Overview Statistics Trail Chart Weather Telemetry Raw packets
 

This is the latest recevied weather packets stored in our database for station/object NI4CE-10. If no packets are shown the sender has not sent any weather packets the latest 10 day(s).

<< 90 91 92 93 94 95 96 >>
Time Temp. Humidity Pressure Rain* Wind** Luminosity Snow
1788224286 26.11° C 100% 1018.3 hPa 1.02 mm - - -
1788223986 26.11° C 100% 1018.2 hPa 1.02 mm - - -
1788223686 26.11° C 100% 1018.2 hPa 1.02 mm - - -
1788223386 26.11° C 100% 1018.2 hPa 1.02 mm - - -
1788223086 26.11° C 100% 1018 hPa 0.76 mm - - -
1788222786 26.11° C 100% 1017.9 hPa 0.76 mm - - -
1788222486 26.67° C 100% 1018.1 hPa 0.76 mm - - -
1788222186 26.67° C 100% 1017.8 hPa 0.76 mm - - -
1788221886 26.67° C 100% 1017.9 hPa 0.76 mm - - -
1788221586 26.67° C 100% 1017.9 hPa 0.51 mm - - -
1788221286 26.67° C 100% 1018 hPa 0.25 mm - - -
1788220986 26.67° C 100% 1018.1 hPa 0 mm - - -
1788220913 26.67° C 100% 1018 hPa 0 mm - - -
1788220686 26.67° C 100% 1018 hPa 0 mm - - -
1788220386 26.67° C 100% 1017.9 hPa 0 mm - - -
1788220086 26.67° C 100% 1017.8 hPa 0.25 mm - - -
1788219786 26.67° C 100% 1017.9 hPa 0.25 mm - - -
1788219486 26.67° C 100% 1017.9 hPa 0.25 mm - - -
1788219186 26.67° C 100% 1018 hPa 0.25 mm - - -
1788219123 26.67° C 100% 1018.2 hPa 0.51 mm - - -
1788218886 26.67° C 100% 1018.2 hPa 0.51 mm - - -
1788218586 26.67° C 100% 1018.3 hPa 0.76 mm - - -
1788218286 26.67° C 100% 1018.3 hPa 1.52 mm - - -
1788217986 26.67° C 100% 1018.3 hPa 3.3 mm - - -
1788217686 26.67° C 100% 1018.3 hPa 5.59 mm - - -

* Rain latest hour (hover to see other rain measurements)
** Current wind speed in m/s (hover to see current wind gust speed)